[[{"header":{"parameterUnit":"m.s-1","parameterCategory":2,"la1":30.2991,"la2":30.254,"lo1":-89.0895,"lo2":-89.0444,"dy":0.0017,"dx":0.0017,"nx":28,"ny":28,"refTime":"2023-07-20T03:00:00:Z","depth":"0","parameterNumber":2,"parameterNumberName":"U-component_of_CURRENTS"},"data":[0,0,0,0,0,0,0,0,0,0,0,0,0,0,0,0,0,0,0,0,0,0,0,0,0,0,0,0,0,0,0,0,0,0,0,0,0,0,0,0,0,0,0,0,0,0,0,0,0,0,0,0,0,0,0,0,0,0,0.5132,0.5134,0,0.527,0.5271,0.5273,0.525,0.5248,0.5245,0.5243,0.521,0.5211,0.5213,0,0,0,0,0,0,0,0,0,0,0,0,0,0.5013,0.5015,0.5132,0.5134,0.5135,0.5269,0.5271,0.5273,0.5251,0.5248,0.5245,0.5242,0.5209,0.5211,0.5213,0,0,0,0,0,0,0,0,0,0,0,0,0,0.5101,0.5015,0.5132,0.5138,0.514,0.5269,0.5271,0.5274,0.5251,0.5248,0.5244,0.524,0.5209,0.5211,0.5213,0.5305,0,0,0.522,0.5221,0,0,0,0,0,0,0,0,0.5096,0.5105,0.5136,0.5138,0.514,0.5237,0.5217,0.5275,0.5252,0.5212,0.5243,0.5238,0.5205,0.5207,0.5247,0.5303,0.5302,0.5221,0.5222,0.5223,0.5224,0,0,0,0,0,0,0,0.5089,0.51,0.5189,0.5138,0.5141,0.519,0.5197,0.523,0.5227,0.5215,0.5213,0.5226,0.5204,0.5245,0.5245,0.5301,0.5221,0.5223,0.5224,0.5225,0.5303,0.5304,0,0,0,0,0,0,0.5064,0.5094,0.5184,0.5193,0.5106,0.5195,0.5203,0.5212,0.523,0.523,0.5229,0.5225,0.5243,0.5243,0.5244,0.5184,0.5223,0.5225,0.5226,0.5303,0.5303,0.5304,0,0,0,0,0,0,0.5061,0.5071,0.5179,0.5145,0.5161,0.5199,0.5211,0.5216,0.5238,0.5242,0.5238,0.5242,0.524,0.5241,0.5242,0.5188,0.5226,0.5228,0.5302,0.5303,0.5304,0.5171,0,0,0,0,0,0,0.5057,0.5069,0.5081,0.5143,0.5162,0.5235,0.5215,0.5222,0.5252,0.5247,0.5253,0.5247,0.5237,0.5239,0.5244,0.5191,0.523,0.5301,0.5302,0.5304,0.5174,0.5167,0.5161,0,0,0,0,0,0.5053,0.5097,0.508,0.5092,0.5172,0.5235,0.5251,0.5267,0.5256,0.5272,0.5262,0.5246,0.525,0.5242,0.5248,0.5194,0.53,0.5302,0.5303,0.5177,0.5169,0.5161,0,0,0,0,0,0,0.5066,0.51,0.5083,0.5136,0.5164,0.5229,0.5257,0.5273,0.5291,0.5275,0.5267,0.5262,0.5244,0.5266,0.5257,0.523,0.527,0.5273,0.5172,0.5164,0.5158,0.5142,0.5232,0,0,0,0,0,0.507,0.5085,0.5129,0.5157,0.5172,0.5212,0.5245,0.5257,0.528,0.5285,0.5275,0.5273,0.527,0.525,0.527,0.5263,0.5294,0.5236,0.5229,0.5223,0.522,0.5253,0.5247,0.5309,0.5309,0.5309,0,0,0.5076,0.5098,0.5104,0.5157,0.5177,0.5176,0.5221,0.5266,0.5239,0.5279,0.5235,0.5263,0.5274,0.5248,0.5241,0.5242,0.5218,0.5225,0.5218,0.522,0.5253,0.5247,0.5241,0.5311,0.531,0.531,0,0,0.507,0.5113,0.5103,0.5126,0.5157,0.518,0.5185,0.5233,0.5225,0.522,0.5225,0.522,0.5223,0.5201,0.5194,0.5179,0.5201,0.5189,0.5109,0.5139,0.5133,0.5128,0.5129,0.5126,0.5161,0.516,0.516,0,0.5066,0.5057,0.5115,0.5104,0.5104,0.5161,0.5137,0.5156,0.5187,0.5169,0.5177,0.5177,0.5187,0.5135,0.5122,0.5152,0.5183,0.512,0.5125,0.5121,0.5118,0.5121,0.5119,0.5154,0.5155,0.5156,0.5156,0,0.5031,0.5023,0.5029,0.4997,0.5018,0.5028,0.5042,0.5048,0.5045,0.5044,0.5019,0.5052,0.5043,0.5043,0.507,0.5048,0.5079,0.5125,0.5128,0.5103,0.5109,0.5108,0.5145,0.5148,0.5149,0.5151,0,0,0.4996,0.4995,0.4987,0.494,0.4965,0.4969,0.4936,0.4916,0.487,0.4893,0.4833,0.4845,0.4885,0.4888,0.4926,0.4944,0.4942,0.5021,0.5026,0.4992,0.4996,0.476,0.4738,0.4995,0.4995,0.4995,0.4995,0,0.4924,0.4871,0.4896,0.4815,0.478,0.4821,0.4781,0.4776,0.4766,0.4731,0.4763,0.4742,0.4814,0.4817,0.4844,0.4937,0.4943,0.4937,0.5054,0.5057,0.4824,0.4729,0.4458,0.4414,0.4996,0.4996,0.4996,0,0.4848,0.4822,0.4743,0.4694,0.4684,0.4646,0.4593,0.4571,0.4558,0.4566,0.4564,0.4606,0.4627,0.4713,0.4806,0.4807,0.4894,0.496,0.4963,0.4789,0.4818,0.4545,0.4393,0.4285,0.4996,0.4996,0.4996,0,0.475,0.4701,0.4625,0.4612,0.4581,0.4541,0.4523,0.4502,0.4468,0.4465,0.4454,0.4489,0.4509,0.4628,0.4757,0.4799,0.4865,0.4936,0.4793,0.4778,0.459,0.4555,0.4316,0.5002,0.5002,0.5002,0.5002,0,0.4656,0.4588,0.4567,0.4522,0.4426,0.4444,0.4344,0.4351,0.4334,0.4276,0.4365,0.4335,0.4502,0.4556,0.4703,0.4701,0.4817,0.474,0.4743,0.4531,0.4493,0.4429,0.4451,0.5002,0.5002,0.5002,0.5002,0,0.4548,0.4539,0.4444,0.4397,0.4371,0.4302,0.4245,0.4182,0.4207,0.4143,0.415,0.4212,0.428,0.4415,0.4577,0.4573,0.4479,0.4637,0.4344,0.4306,0.3992,0.4019,0.3644,0.3589,0.4429,0.4423,0.4417,0,0.4481,0.4421,0.4346,0.429,0.4257,0.417,0.4113,0.4113,0.406,0.4054,0.4018,0.4057,0.4044,0.4127,0.416,0.4251,0.4275,0.4014,0.4015,0.3866,0.3906,0.3787,0.3766,0.3736,0.3726,0.3718,0.3711,0,0.4345,0.4324,0.4266,0.4158,0.4075,0.3982,0.3905,0.385,0.3851,0.3815,0.3761,0.3744,0.3761,0.3647,0.3696,0.3755,0.3724,0.3833,0.3778,0.3376,0.3138,0.3123,0.3857,0.3635,0.3643,0.3648,0.3652,0.3655,0.4234,0.4172,0.4096,0.3977,0.39,0.3772,0.3638,0.3593,0.3488,0.3358,0.3471,0.3326,0.3244,0.3239,0.3268,0.3041,0.3207,0.2952,0.3014,0.2918,0.2761,0.3269,0.2984,0.2988,0.2991,0.2994,0.2996,0,0.4023,0.398,0.3905,0.3736,0.3594,0.3605,0.3464,0.3308,0.3127,0.3067,0.2978,0.274,0.258,0.2563,0.2367,0.2245,0.2223,0.2209,0.2051,0.2104,0.2628,0.2493,0.1964,0.1964,0.1964,0.1964,0.1965,0.1965,0.3895,0.3752,0.3718,0.3439,0.3341,0.3076,0.2961,0.2799,0.2693,0.2394,0.2176,0.2138,0.2073,0.1869,0.1698,0.1691,0.1666,0.1434,0.1635,0.2079,0.2156,0.223,0.2103,0.1501,0.15,0.0952,0.0948,0.0945]},{"header":{"parameterUnit":"m.s-1","parameterCategory":2,"la1":30.2991,"la2":30.254,"lo1":-89.0895,"lo2":-89.0444,"dy":0.0017,"dx":0.0017,"nx":28,"ny":28,"refTime":"2023-07-20T03:00:00:Z","depth":"0","parameterNumber":3,"parameterNumberName":"V-component_of_CURRENTS"},"data":[0,0,0,0,0,0,0,0,0,0,0,0,0,0,0,0,0,0,0,0,0,0,0,0,0,0,0,0,0,0,0,0,0,0,0,0,0,0,0,0,0,0,0,0,0,0,0,0,0,0,0,0,0,0,0,0,0,0,0.0751,0.0752,0,0.0841,0.0842,0.0843,0.0863,0.0863,0.0862,0.0861,0.095,0.0953,0.0956,0,0,0,0,0,0,0,0,0,0,0,0,0,0.0704,0.0705,0.0751,0.0752,0.0753,0.084,0.0842,0.0844,0.0864,0.0862,0.0861,0.086,0.0949,0.0953,0.0956,0,0,0,0,0,0,0,0,0,0,0,0,0,0.0755,0.0705,0.0751,0.0771,0.0774,0.084,0.0842,0.0844,0.0864,0.0862,0.0861,0.086,0.0948,0.0952,0.0957,0.1013,0,0,0.0972,0.0974,0,0,0,0,0,0,0,0,0.0752,0.0757,0.0767,0.077,0.0773,0.0837,0.0858,0.09,0.0864,0.0833,0.0861,0.0859,0.0911,0.0919,0.0943,0.1018,0.1021,0.0972,0.0975,0.0977,0.0978,0,0,0,0,0,0,0,0.0748,0.0754,0.0789,0.0768,0.0772,0.0812,0.0817,0.0867,0.088,0.0835,0.0836,0.0842,0.0913,0.0938,0.0945,0.1023,0.0972,0.0976,0.0979,0.0981,0.1131,0.1132,0,0,0,0,0,0,0.0727,0.075,0.0786,0.0792,0.0756,0.0814,0.082,0.082,0.088,0.0887,0.0843,0.0843,0.0931,0.0939,0.0948,0.104,0.0977,0.0982,0.0984,0.113,0.1131,0.1132,0,0,0,0,0,0,0.0726,0.0729,0.0783,0.0771,0.078,0.0815,0.0816,0.0822,0.0846,0.0886,0.0893,0.0859,0.093,0.0941,0.0997,0.1042,0.0984,0.0988,0.1129,0.113,0.1132,0.121,0,0,0,0,0,0,0.0724,0.0728,0.0731,0.0769,0.078,0.0833,0.0817,0.0825,0.0851,0.0851,0.0902,0.0909,0.093,0.099,0.1002,0.1048,0.0992,0.1127,0.1129,0.1131,0.1206,0.1214,0.1221,0,0,0,0,0,0.0722,0.0746,0.073,0.0735,0.0779,0.0834,0.0845,0.0867,0.0853,0.088,0.0905,0.0907,0.101,0.0995,0.1009,0.1058,0.1126,0.1129,0.1131,0.1203,0.1212,0.1221,0,0,0,0,0,0,0.0755,0.0751,0.0735,0.0762,0.0791,0.0836,0.0862,0.0871,0.0914,0.091,0.0934,0.0945,0.1012,0.1016,0.0999,0.1101,0.1065,0.107,0.1114,0.1124,0.1131,0.1132,0.0996,0,0,0,0,0,0.0753,0.0763,0.0769,0.0803,0.0799,0.0825,0.085,0.0866,0.0903,0.092,0.0958,0.099,0.1036,0.1062,0.1104,0.1167,0.1156,0.12,0.1208,0.1214,0.1221,0.1249,0.126,0.114,0.114,0.114,0,0,0.0789,0.0781,0.0796,0.0809,0.0823,0.0858,0.0838,0.0881,0.0932,0.0925,0.1006,0.1027,0.1057,0.1131,0.1159,0.1139,0.1238,0.1217,0.1223,0.1226,0.1253,0.1264,0.1275,0.1142,0.1142,0.1142,0,0,0.0851,0.0835,0.0846,0.0867,0.0879,0.0898,0.0905,0.0944,0.0971,0.1043,0.105,0.1093,0.1166,0.1203,0.1226,0.1298,0.1279,0.1303,0.1348,0.1376,0.1386,0.1395,0.1379,0.1386,0.1304,0.1305,0.1305,0,0.0884,0.089,0.0872,0.0888,0.0917,0.0911,0.095,0.0991,0.106,0.1095,0.1075,0.1182,0.1206,0.1292,0.1312,0.1321,0.1309,0.1317,0.1387,0.1396,0.1404,0.1385,0.1391,0.1309,0.1308,0.1308,0.1307,0,0.094,0.0954,0.0969,0.0975,0.1014,0.1053,0.1083,0.1134,0.1152,0.1191,0.1272,0.1298,0.1354,0.1369,0.1366,0.144,0.1404,0.1397,0.1367,0.1421,0.1396,0.1402,0.1314,0.1313,0.1312,0.1311,0,0,0.0975,0.0996,0.0999,0.1017,0.1056,0.1098,0.1179,0.1246,0.13,0.135,0.1423,0.1486,0.1475,0.1498,0.1497,0.1515,0.1555,0.1477,0.1477,0.1465,0.1582,0.1521,0.152,0.156,0.1562,0.1563,0.1536,0,0.1009,0.1053,0.1064,0.1146,0.1167,0.1207,0.129,0.1365,0.1408,0.1484,0.1504,0.1564,0.1531,0.1546,0.1568,0.1569,0.1575,0.156,0.1528,0.1526,0.1471,0.1528,0.146,0.1428,0.1541,0.1542,0.1543,0,0.1038,0.1058,0.1125,0.121,0.1223,0.1285,0.1395,0.147,0.1567,0.1603,0.1652,0.1657,0.1705,0.1652,0.1675,0.1664,0.1628,0.1609,0.1607,0.153,0.1477,0.1396,0.1433,0.1407,0.1551,0.155,0.155,0,0.1051,0.1109,0.1162,0.1192,0.1283,0.1337,0.1395,0.1503,0.1568,0.1662,0.1704,0.1755,0.1771,0.176,0.1715,0.1698,0.1717,0.169,0.1595,0.1588,0.1514,0.1498,0.1528,0.1696,0.1697,0.1697,0.1697,0,0.1081,0.1126,0.1166,0.1201,0.1281,0.1348,0.1449,0.1524,0.162,0.1695,0.1746,0.1799,0.1797,0.1801,0.1752,0.1694,0.1746,0.1613,0.1593,0.1535,0.1522,0.148,0.1494,0.1695,0.1696,0.1696,0.1696,0,0.1099,0.1128,0.1187,0.1261,0.1289,0.1348,0.1459,0.1529,0.1623,0.1717,0.1742,0.1835,0.1848,0.1822,0.1802,0.1731,0.1667,0.1644,0.1552,0.1522,0.1395,0.1416,0.1428,0.1463,0.1536,0.1535,0.1534,0,0.1103,0.113,0.1207,0.1242,0.127,0.1353,0.1417,0.1521,0.1586,0.1733,0.1772,0.1826,0.1869,0.1828,0.1731,0.1639,0.1629,0.1483,0.1446,0.1392,0.1401,0.1417,0.1449,0.1364,0.1362,0.136,0.1358,0,0.1093,0.1124,0.1171,0.124,0.1297,0.1376,0.1458,0.1506,0.1629,0.1711,0.1811,0.1857,0.183,0.1739,0.1619,0.154,0.1477,0.1436,0.1425,0.1313,0.1292,0.1312,0.1351,0.134,0.1342,0.1343,0.1344,0.1345,0.1066,0.1102,0.1164,0.1239,0.1306,0.139,0.1437,0.1528,0.163,0.1741,0.1799,0.1857,0.1735,0.1587,0.1493,0.1271,0.1367,0.1182,0.122,0.1247,0.1268,0.1247,0.119,0.1191,0.1192,0.1192,0.1193,0,0.1021,0.109,0.1156,0.1249,0.1313,0.1365,0.146,0.1498,0.1591,0.1706,0.1783,0.172,0.158,0.1424,0.1164,0.1068,0.1076,0.103,0.1049,0.1103,0.1102,0.108,0.0943,0.0943,0.0943,0.0943,0.0943,0.0943,0.1007,0.1061,0.1121,0.1222,0.129,0.1347,0.139,0.1456,0.1534,0.1608,0.1621,0.1665,0.1593,0.1208,0.0991,0.0948,0.0999,0.0936,0.104,0.1019,0.1036,0.1053,0.1035,0.0891,0.0891,0.1012,0.1013,0.1014]}],[{"header":{"parameterUnit":"m.s-1","parameterCategory":2,"la1":30.2991,"la2":30.254,"lo1":-89.0895,"lo2":-89.0444,"dy":0.0017,"dx":0.0017,"nx":28,"ny":28,"refTime":"2023-07-20T03:00:00:Z","depth":"2","parameterNumber":2,"parameterNumberName":"U-component_of_CURRENTS"},"data":[0,0,0,0,0,0,0,0,0,0,0,0,0,0,0,0,0,0,0,0,0,0,0,0,0,0,0,0,0,0,0,0,0,0,0,0,0,0,0,0,0,0,0,0,0,0,0,0,0,0,0,0,0,0,0,0,0,0,0.3229,0.3229,0,0.3219,0.3219,0.3219,0.3234,0.3235,0.3235,0.3235,0.3429,0.3433,0.3438,0,0,0,0,0,0,0,0,0,0,0,0,0,0.3283,0.3282,0.3229,0.3229,0.3229,0.3219,0.3219,0.3219,0.3234,0.3235,0.3235,0.3236,0.3427,0.3433,0.3438,0,0,0,0,0,0,0,0,0,0,0,0,0,0.3266,0.3282,0.3229,0.3235,0.3235,0.3219,0.3219,0.3219,0.3234,0.3235,0.3235,0.3236,0.3425,0.3432,0.3439,0.347,0,0,0.3461,0.3464,0,0,0,0,0,0,0,0,0.3267,0.3264,0.3234,0.3234,0.3234,0.3227,0.3308,0.3312,0.3234,0.3236,0.3235,0.3236,0.3379,0.339,0.3385,0.3479,0.3487,0.3461,0.3466,0.3469,0.3471,0,0,0,0,0,0,0,0.3268,0.3265,0.3226,0.3234,0.3234,0.3244,0.3242,0.3309,0.3309,0.3235,0.3236,0.3233,0.3381,0.3378,0.3391,0.349,0.3461,0.3468,0.3472,0.3475,0.384,0.3845,0,0,0,0,0,0,0.3265,0.3266,0.3227,0.3226,0.3251,0.3242,0.3241,0.323,0.3303,0.3313,0.3232,0.3234,0.3366,0.3382,0.3398,0.361,0.3469,0.3475,0.3479,0.3835,0.3841,0.3847,0,0,0,0,0,0,0.3266,0.3261,0.3227,0.3245,0.3242,0.3241,0.3229,0.3229,0.3299,0.3298,0.3313,0.331,0.3367,0.3388,0.3516,0.3612,0.3479,0.3485,0.3828,0.3837,0.3844,0.3927,0,0,0,0,0,0,0.3267,0.3261,0.3303,0.3245,0.324,0.3265,0.3228,0.3229,0.3291,0.3295,0.3369,0.3382,0.3369,0.3505,0.3523,0.3619,0.3491,0.3821,0.3832,0.3841,0.3917,0.3937,0.3954,0,0,0,0,0,0.3269,0.3264,0.3305,0.3303,0.328,0.3267,0.3268,0.3269,0.3295,0.3336,0.3391,0.3384,0.3584,0.3515,0.3534,0.3635,0.3816,0.3829,0.3841,0.3909,0.3933,0.3953,0,0,0,0,0,0,0.3257,0.3264,0.3307,0.3297,0.3325,0.327,0.3302,0.3323,0.3395,0.343,0.3438,0.3456,0.3607,0.3625,0.3549,0.3778,0.3707,0.3724,0.3753,0.3776,0.3793,0.3631,0.3497,0,0,0,0,0,0.3292,0.3334,0.3326,0.3338,0.3355,0.3365,0.3382,0.3396,0.3421,0.3455,0.3516,0.3594,0.3661,0.3721,0.3784,0.3909,0.381,0.3997,0.4015,0.403,0.3918,0.3886,0.3886,0.3887,0.3887,0.3887,0,0,0.328,0.3305,0.332,0.3351,0.337,0.3366,0.3378,0.3421,0.3432,0.3471,0.3567,0.3668,0.3712,0.3834,0.3907,0.3869,0.3995,0.4045,0.4057,0.3933,0.3898,0.3896,0.3894,0.3895,0.3894,0.3893,0,0,0.3268,0.3319,0.336,0.3385,0.3452,0.3434,0.3471,0.3505,0.3551,0.3655,0.369,0.3823,0.3957,0.3978,0.4004,0.4168,0.4092,0.4268,0.4224,0.42,0.4195,0.419,0.4099,0.4084,0.4277,0.4278,0.4278,0,0.3283,0.3287,0.3367,0.34,0.3395,0.3468,0.3463,0.3505,0.3591,0.3655,0.3706,0.3903,0.3983,0.4051,0.4106,0.4197,0.4143,0.4132,0.421,0.4202,0.4195,0.4102,0.4084,0.4283,0.4282,0.4282,0.4281,0,0.3252,0.3297,0.3308,0.337,0.3403,0.3402,0.3451,0.3536,0.3629,0.3699,0.3865,0.3958,0.4059,0.4162,0.4167,0.421,0.4177,0.4231,0.4121,0.4197,0.4099,0.4079,0.4291,0.4289,0.4287,0.4286,0,0,0.3137,0.3267,0.3261,0.3309,0.3374,0.3375,0.343,0.3489,0.3529,0.3714,0.3766,0.394,0.4054,0.4081,0.4171,0.4144,0.41,0.4158,0.4155,0.4002,0.3987,0.3812,0.3773,0.4179,0.4175,0.4173,0.3948,0,0.308,0.3103,0.3182,0.3194,0.3201,0.3293,0.3307,0.3417,0.3534,0.363,0.3792,0.39,0.4007,0.4078,0.4085,0.4106,0.4045,0.4149,0.3984,0.3975,0.3759,0.3743,0.3532,0.3298,0.3927,0.3923,0.3921,0,0.2991,0.3021,0.3021,0.311,0.3118,0.3171,0.3216,0.324,0.3408,0.3506,0.3669,0.3809,0.3875,0.3932,0.3911,0.3983,0.3946,0.3926,0.3921,0.3671,0.376,0.3326,0.3236,0.3885,0.3888,0.3891,0.3893,0,0.2807,0.2897,0.2889,0.2907,0.301,0.3089,0.314,0.3277,0.3301,0.345,0.3502,0.3651,0.3696,0.3705,0.3758,0.3828,0.3651,0.3771,0.3542,0.353,0.3254,0.3221,0.3634,0.3634,0.3635,0.3635,0.3636,0,0.2651,0.2692,0.2854,0.2834,0.2893,0.3007,0.3069,0.3138,0.3226,0.326,0.3453,0.3456,0.363,0.3632,0.3664,0.3517,0.3598,0.343,0.3435,0.3289,0.3263,0.37,0.371,0.3627,0.3629,0.363,0.3632,0,0.255,0.26,0.2622,0.2732,0.2835,0.2877,0.3059,0.3056,0.3133,0.3156,0.3194,0.33,0.3291,0.3398,0.3372,0.3342,0.3259,0.3173,0.2953,0.2931,0.3167,0.3186,0.2868,0.2859,0.2852,0.2846,0.284,0,0.2528,0.2523,0.2571,0.2603,0.2729,0.2856,0.2922,0.3025,0.3016,0.3045,0.3013,0.3044,0.3022,0.2901,0.2872,0.2797,0.3015,0.2512,0.2587,0.3037,0.3076,0.3107,0.3136,0.2283,0.2274,0.2266,0.226,0,0.2494,0.249,0.2457,0.25,0.26,0.2673,0.2805,0.2777,0.2817,0.2815,0.2763,0.2742,0.2628,0.2446,0.2323,0.2287,0.253,0.2346,0.2848,0.252,0.247,0.2516,0.2565,0.2193,0.22,0.2204,0.2208,0.2211,0.2462,0.2425,0.2333,0.2416,0.2476,0.25,0.2532,0.256,0.2509,0.2414,0.2457,0.23,0.2204,0.1894,0.1827,0.1826,0.1997,0.1953,0.1983,0.202,0.2001,0.1943,0.1559,0.1562,0.1564,0.1566,0.1569,0,0.2363,0.2349,0.2322,0.2285,0.2291,0.2432,0.2444,0.2374,0.2301,0.2122,0.2048,0.1694,0.1477,0.1492,0.134,0.1268,0.1353,0.1275,0.1405,0.1467,0.1524,0.1492,0.0907,0.0906,0.0905,0.0904,0,0,0.2265,0.2187,0.2167,0.2146,0.2215,0.2213,0.2235,0.2104,0.1955,0.1624,0.1456,0.1344,0.1348,0.108,0.103,0.097,0.1236,0.0937,0.1452,0.1664,0.1721,0.1875,0.1885,0,0,0,0,0]},{"header":{"parameterUnit":"m.s-1","parameterCategory":2,"la1":30.2991,"la2":30.254,"lo1":-89.0895,"lo2":-89.0444,"dy":0.0017,"dx":0.0017,"nx":28,"ny":28,"refTime":"2023-07-20T03:00:00:Z","depth":"2","parameterNumber":3,"parameterNumberName":"V-component_of_CURRENTS"},"data":[0,0,0,0,0,0,0,0,0,0,0,0,0,0,0,0,0,0,0,0,0,0,0,0,0,0,0,0,0,0,0,0,0,0,0,0,0,0,0,0,0,0,0,0,0,0,0,0,0,0,0,0,0,0,0,0,0,0,-0.0509,-0.051,0,-0.0525,-0.0525,-0.0524,-0.0467,-0.0466,-0.0465,-0.0464,-0.0417,-0.0417,-0.0416,0,0,0,0,0,0,0,0,0,0,0,0,0,-0.0485,-0.0485,-0.0509,-0.051,-0.0511,-0.0525,-0.0525,-0.0524,-0.0467,-0.0466,-0.0464,-0.0463,-0.0417,-0.0417,-0.0416,0,0,0,0,0,0,0,0,0,0,0,0,0,-0.049,-0.0485,-0.0509,-0.049,-0.0489,-0.0525,-0.0525,-0.0524,-0.0467,-0.0466,-0.0464,-0.0463,-0.0417,-0.0417,-0.0416,-0.0444,0,0,-0.0415,-0.0415,0,0,0,0,0,0,0,0,-0.049,-0.049,-0.0492,-0.0491,-0.049,-0.0499,-0.05,-0.0497,-0.0467,-0.0467,-0.0464,-0.0462,-0.0445,-0.0442,-0.0438,-0.0442,-0.044,-0.0415,-0.0414,-0.0414,-0.0414,0,0,0,0,0,0,0,-0.049,-0.049,-0.0507,-0.0493,-0.0492,-0.05,-0.0498,-0.0499,-0.0457,-0.0467,-0.0465,-0.0479,-0.0442,-0.0439,-0.0437,-0.0439,-0.0415,-0.0414,-0.0414,-0.0414,-0.0383,-0.0382,0,0,0,0,0,0,-0.0502,-0.0489,-0.0507,-0.0509,-0.0495,-0.0502,-0.0499,-0.0491,-0.0458,-0.0455,-0.0481,-0.0477,-0.044,-0.0437,-0.0435,-0.0288,-0.0414,-0.0414,-0.0414,-0.0383,-0.0383,-0.0382,0,0,0,0,0,0,-0.0501,-0.0503,-0.0507,-0.0507,-0.0509,-0.0505,-0.0496,-0.0493,-0.0482,-0.0471,-0.0464,-0.0474,-0.0439,-0.0435,-0.0418,-0.0292,-0.0414,-0.0413,-0.0384,-0.0383,-0.0382,-0.0108,0,0,0,0,0,0,-0.05,-0.0501,-0.0496,-0.0507,-0.051,-0.0529,-0.0498,-0.0494,-0.0498,-0.0492,-0.0463,-0.0457,-0.0437,-0.0419,-0.0418,-0.0294,-0.0413,-0.0385,-0.0384,-0.0383,-0.0118,-0.0098,-0.0081,0,0,0,0,0,-0.0498,-0.0521,-0.0495,-0.0498,-0.0503,-0.0531,-0.0532,-0.052,-0.0499,-0.0501,-0.0468,-0.0458,-0.0411,-0.0419,-0.0417,-0.029,-0.0385,-0.0384,-0.0383,-0.0126,-0.0102,-0.0082,0,0,0,0,0,0,-0.0528,-0.0518,-0.049,-0.051,-0.0513,-0.0524,-0.0544,-0.0524,-0.0502,-0.0487,-0.0461,-0.0454,-0.0394,-0.0422,-0.0431,-0.0294,-0.0393,-0.0392,-0.0199,-0.0176,-0.0158,-0.0177,-0.0412,0,0,0,0,0,-0.0528,-0.0526,-0.0522,-0.0539,-0.0545,-0.0537,-0.0546,-0.0527,-0.0519,-0.0507,-0.0465,-0.0436,-0.0393,-0.0351,-0.0353,-0.0278,-0.0371,-0.0205,-0.0186,-0.0169,-0.0193,-0.026,-0.0248,-0.0378,-0.0378,-0.0378,0,0,-0.0544,-0.0544,-0.054,-0.0543,-0.0548,-0.0535,-0.0537,-0.0552,-0.0507,-0.0508,-0.0429,-0.0393,-0.038,-0.028,-0.0251,-0.027,-0.0174,-0.0168,-0.0151,-0.0187,-0.0257,-0.0244,-0.0233,-0.0377,-0.0377,-0.0377,0,0,-0.057,-0.0576,-0.0563,-0.0567,-0.0569,-0.0558,-0.056,-0.0537,-0.0494,-0.0435,-0.0396,-0.0291,-0.0258,-0.0159,-0.0122,-0.0026,-0.0107,-0.0023,0.0117,0.0057,0.0068,0.0076,0.0021,0.0022,0.003,0.0031,0.0031,0,-0.0589,-0.0559,-0.0572,-0.0564,-0.056,-0.0562,-0.0536,-0.0508,-0.0461,-0.038,-0.0395,-0.0222,-0.0188,-0.0007,0.0054,0.0034,-0.0052,0.0064,0.0087,0.0093,0.0097,0.0037,0.0035,0.0044,0.0043,0.0041,0.004,0,-0.0586,-0.056,-0.0577,-0.0533,-0.0532,-0.0537,-0.0495,-0.0447,-0.0385,-0.029,-0.0127,-0.0061,0.0069,0.0124,0.0131,0.0242,0.0156,0.0096,0.0051,0.0128,0.0058,0.0052,0.0063,0.0059,0.0055,0.0051,0,0,-0.0617,-0.0572,-0.057,-0.0521,-0.0513,-0.0503,-0.0438,-0.0328,-0.0223,-0.0116,0.0062,0.0206,0.0299,0.0336,0.0403,0.0392,0.0405,0.0275,0.0266,0.0254,0.0249,0.0331,0.0329,0.0337,0.0336,0.0335,0.0209,0,-0.0597,-0.0558,-0.0532,-0.0468,-0.0442,-0.0412,-0.0347,-0.0239,-0.0124,0.0046,0.0202,0.0356,0.0366,0.047,0.0481,0.0411,0.0386,0.0443,0.0141,0.0132,0.0224,0.0324,0.0284,0.0178,0.02,0.0199,0.0198,0,-0.0572,-0.0548,-0.0483,-0.0394,-0.0378,-0.0306,-0.017,-0.0118,0.0099,0.0185,0.04,0.0508,0.0659,0.0574,0.0518,0.0541,0.0402,0.0308,0.03,0.0261,0.02,0.0087,0.0161,0.0184,0.0185,0.0186,0.0187,0,-0.0563,-0.0496,-0.0431,-0.0416,-0.0331,-0.0232,-0.0169,-0.0003,0.0073,0.0309,0.0399,0.0599,0.0663,0.0566,0.0487,0.0465,0.0319,0.0267,0.0202,0.0205,0.0052,0.0045,0.0121,0.0121,0.0121,0.0122,0.0122,0,-0.0539,-0.048,-0.039,-0.0354,-0.0218,-0.0184,-0.0008,0.0073,0.022,0.0372,0.0499,0.0631,0.0625,0.0616,0.0502,0.0382,0.0338,0.023,0.0188,0.0153,0.0156,0.0042,0.0034,0.0117,0.0118,0.0119,0.012,0,-0.0501,-0.0471,-0.0383,-0.0266,-0.0193,-0.0093,0.007,0.0168,0.0244,0.0431,0.0497,0.0619,0.0622,0.0602,0.0447,0.0381,0.0262,0.0187,0.0179,0.0143,0.0172,0.0179,0.0127,0.0129,0.013,0.0132,0.0133,0,-0.0454,-0.0421,-0.0307,-0.0219,-0.0118,0.003,0.0125,0.021,0.0302,0.0448,0.0537,0.0609,0.0743,0.06,0.0477,0.0336,0.0276,0.0165,0.0149,0.0214,0.0176,0.0181,0.0186,0.004,0.004,0.004,0.0041,0,-0.038,-0.0364,-0.0312,-0.0151,-0.0002,0.012,0.0283,0.0347,0.0435,0.0555,0.0717,0.0833,0.0756,0.0673,0.0479,0.0367,0.023,0.0172,0.0196,0.0094,0.0135,0.0098,0.0104,0.0043,0.0043,0.0043,0.0043,0.0042,-0.0329,-0.0288,-0.0237,-0.0061,0.0082,0.0236,0.0361,0.0485,0.0623,0.0803,0.0854,0.0953,0.0791,0.0583,0.0448,0.0279,0.0258,0.0144,0.014,0.0136,0.0198,0.0246,0.0184,0.0185,0.0185,0.0186,0.0186,0,-0.028,-0.0241,-0.0123,0.0049,0.0205,0.0299,0.0471,0.0558,0.0769,0.0873,0.1031,0.0867,0.0759,0.059,0.0331,0.02,0.0151,0.017,0.0095,0.0091,0.0089,0.0147,0.0119,0.012,0.012,0.012,0,0,-0.026,-0.0186,-0.0136,0.0133,0.0296,0.0496,0.062,0.0737,0.0816,0.0933,0.0968,0.0981,0.0755,0.0555,0.0364,0.0245,0.0212,0.0232,0.0282,0.0208,0.0209,0.0055,0.0141,0,0,0,0,0]}],[{"header":{"parameterUnit":"m.s-1","parameterCategory":2,"la1":30.2991,"la2":30.254,"lo1":-89.0895,"lo2":-89.0444,"dy":0.0017,"dx":0.0017,"nx":28,"ny":28,"refTime":"2023-07-20T03:00:00:Z","depth":"4","parameterNumber":2,"parameterNumberName":"U-component_of_CURRENTS"},"data":[0,0,0,0,0,0,0,0,0,0,0,0,0,0,0,0,0,0,0,0,0,0,0,0,0,0,0,0,0,0,0,0,0,0,0,0,0,0,0,0,0,0,0,0,0,0,0,0,0,0,0,0,0,0,0,0,0,0,0.0074,0.0074,0,0.0041,0.0041,0.004,0.0139,0.0142,0.0145,0.0148,0.0235,0.0235,0.0234,0,0,0,0,0,0,0,0,0,0,0,0,0,0.0162,0.016,0.0074,0.0074,0.0073,0.0041,0.0041,0.004,0.0139,0.0142,0.0146,0.0149,0.0235,0.0235,0.0234,0,0,0,0,0,0,0,0,0,0,0,0,0,0.0126,0.016,0.0074,0.0118,0.0122,0.0041,0.0041,0.004,0.0138,0.0142,0.0147,0.0151,0.0236,0.0235,0.0234,0.0141,0,0,0.0232,0.0232,0,0,0,0,0,0,0,0,0.0128,0.0123,0.0112,0.0115,0.0119,0.0098,0.0104,0.008,0.0137,0.0132,0.0148,0.0153,0.0197,0.02,0.0183,0.0145,0.0149,0.0232,0.0232,0.0231,0.0231,0,0,0,0,0,0,0,0.0131,0.0125,0.0062,0.0111,0.0115,0.0118,0.0119,0.0099,0.0143,0.0133,0.014,0.0134,0.02,0.0183,0.0186,0.015,0.0232,0.0232,0.0231,0.0231,0.025,0.025,0,0,0,0,0,0,0.0131,0.0127,0.0063,0.0061,0.0134,0.0113,0.0114,0.0101,0.014,0.015,0.013,0.0138,0.0182,0.0186,0.0189,0.0297,0.0231,0.0231,0.023,0.0249,0.025,0.0251,0,0,0,0,0,0,0.0133,0.0125,0.0064,0.0094,0.0086,0.0108,0.0092,0.0098,0.0104,0.0137,0.015,0.0133,0.0185,0.019,0.0238,0.0294,0.0231,0.023,0.0248,0.0249,0.025,0.0374,0,0,0,0,0,0,0.0135,0.0126,0.0105,0.0093,0.0084,0.0039,0.0087,0.0094,0.0092,0.0103,0.0142,0.0154,0.0189,0.0239,0.0237,0.0292,0.0229,0.0247,0.0248,0.025,0.0369,0.0379,0.0388,0,0,0,0,0,0.0138,0.0099,0.0104,0.0096,0.0059,0.0038,0.0034,0.0065,0.0087,0.0086,0.0148,0.0154,0.0249,0.0238,0.0236,0.0292,0.0246,0.0248,0.025,0.0364,0.0377,0.0388,0,0,0,0,0,0,0.0103,0.0104,0.0111,0.0066,0.0062,0.0056,0.0045,0.0054,0.0088,0.012,0.0155,0.017,0.0243,0.0222,0.021,0.0298,0.0249,0.0251,0.0337,0.0349,0.0359,0.0384,0.0229,0,0,0,0,0,0.0085,0.007,0.0067,0.0027,0.0032,0.0032,0.0022,0.005,0.0076,0.0095,0.0134,0.0179,0.0233,0.0259,0.029,0.0309,0.0279,0.0343,0.0353,0.0361,0.0378,0.0372,0.0383,0.0257,0.0257,0.0257,0,0,0.0054,0.0051,0.0039,0.002,0.0022,0.0038,0.004,0.004,0.0076,0.0096,0.0166,0.0211,0.0245,0.0319,0.0344,0.0318,0.0377,0.0364,0.0372,0.0384,0.0375,0.0388,0.0399,0.0259,0.0259,0.0258,0,0,0.0013,-0.0006,-0.0009,-0.0002,0.001,0.0025,0.0028,0.0048,0.0088,0.0137,0.0195,0.0268,0.031,0.0376,0.0407,0.0462,0.0433,0.0472,0.0546,0.054,0.0551,0.056,0.0527,0.0532,0.0474,0.0475,0.0475,0,-0.0013,-0.0021,-0.0021,-0.0007,0.0012,0.0028,0.0054,0.0076,0.0118,0.0171,0.0186,0.0319,0.0344,0.0457,0.0515,0.049,0.0474,0.0509,0.0555,0.0564,0.0571,0.0535,0.054,0.0481,0.048,0.0479,0.0479,0,-0.0029,-0.0033,-0.0035,0.0009,0.0025,0.0039,0.0093,0.0137,0.0192,0.0239,0.0361,0.0413,0.051,0.0524,0.0553,0.0638,0.0605,0.0574,0.0533,0.0592,0.0549,0.0552,0.049,0.0487,0.0486,0.0484,0,0,-0.0077,-0.0045,-0.0042,-0.001,0.0047,0.0062,0.0142,0.0225,0.0306,0.037,0.0478,0.0587,0.0644,0.068,0.0717,0.0718,0.0761,0.0691,0.0688,0.0672,0.0743,0.066,0.0653,0.0752,0.0753,0.0755,0.0688,0,-0.0075,-0.005,-0.0019,0.0031,0.0057,0.0127,0.0206,0.0293,0.038,0.0488,0.0566,0.069,0.0693,0.0783,0.0789,0.0782,0.0776,0.0781,0.0676,0.0672,0.0603,0.0657,0.0759,0.069,0.069,0.069,0.0691,0,-0.0077,-0.006,-0.0011,0.0073,0.01,0.0168,0.0323,0.0399,0.0553,0.063,0.076,0.0824,0.092,0.0884,0.0886,0.0899,0.0848,0.0799,0.0794,0.068,0.0595,0.0617,0.0694,0.0694,0.0694,0.0693,0.0693,0,-0.0095,-0.0044,0.0001,0.0025,0.0125,0.0216,0.0318,0.0474,0.0568,0.076,0.0842,0.0946,0.1021,0.0982,0.092,0.0928,0.085,0.083,0.069,0.0681,0.072,0.0711,0.0802,0.0802,0.0802,0.0802,0.0802,0,-0.0095,-0.007,0.0013,0.004,0.0153,0.0247,0.042,0.0531,0.0705,0.0795,0.0946,0.0979,0.1053,0.102,0.0942,0.082,0.0866,0.0718,0.0671,0.0769,0.0767,0.0721,0.0712,0.08,0.08,0.0801,0.0801,0,-0.0128,-0.0087,-0.0043,0.008,0.0148,0.0247,0.0482,0.0588,0.0764,0.088,0.0954,0.1044,0.0988,0.0982,0.0895,0.0843,0.0727,0.0658,0.0754,0.0711,0.0559,0.0558,0.0532,0.0529,0.0526,0.0524,0.0522,0,-0.0144,-0.0126,-0.0017,0.0046,0.0124,0.0298,0.0421,0.0621,0.0707,0.084,0.0851,0.0897,0.0915,0.0746,0.0721,0.0609,0.0574,0.0571,0.0601,0.0581,0.0538,0.0541,0.0543,0.0518,0.0517,0.0517,0.0516,0,-0.0185,-0.0148,-0.0104,0.0025,0.0154,0.0279,0.0457,0.0497,0.0666,0.0808,0.0775,0.0773,0.0696,0.0638,0.0597,0.0482,0.0624,0.0542,0.0548,0.0576,0.0563,0.0524,0.0529,0.0506,0.0508,0.0509,0.0509,0,-0.0209,-0.0196,-0.0123,-0.0001,0.014,0.0225,0.032,0.0412,0.0517,0.0654,0.0582,0.0583,0.0635,0.0557,0.045,0.0422,0.0409,0.0437,0.0448,0.0458,0.0465,0.044,0.0318,0,0,0,0,0,-0.0225,-0.0212,-0.0137,-0.0017,0.0117,0.0202,0.0321,0.0394,0.0501,0.0469,0.0556,0.0467,0.0412,0.0379,0.0324,0.0354,0.0377,0.029,0.0408,0.0454,0.0465,0.048,0,0,0,0,0,0,-0.0236,-0.0198,-0.0175,-0.0047,0.0042,0.0175,0.023,0.0285,0.0283,0.0381,0.0331,0.0462,0.0373,0.0435,0.0322,0.0319,0.0388,0.0309,0.0308,0.0448,0.0458,0.0467,0.0486,0,0,0,0,0]},{"header":{"parameterUnit":"m.s-1","parameterCategory":2,"la1":30.2991,"la2":30.254,"lo1":-89.0895,"lo2":-89.0444,"dy":0.0017,"dx":0.0017,"nx":28,"ny":28,"refTime":"2023-07-20T03:00:00:Z","depth":"4","parameterNumber":3,"parameterNumberName":"V-component_of_CURRENTS"},"data":[0,0,0,0,0,0,0,0,0,0,0,0,0,0,0,0,0,0,0,0,0,0,0,0,0,0,0,0,0,0,0,0,0,0,0,0,0,0,0,0,0,0,0,0,0,0,0,0,0,0,0,0,0,0,0,0,0,0,0.0432,0.0433,0,0.0494,0.0494,0.0495,0.0532,0.0532,0.0533,0.0533,0.0531,0.0531,0.053,0,0,0,0,0,0,0,0,0,0,0,0,0,0.0401,0.0401,0.0432,0.0433,0.0434,0.0494,0.0494,0.0495,0.0532,0.0532,0.0533,0.0534,0.0531,0.0531,0.053,0,0,0,0,0,0,0,0,0,0,0,0,0,0.043,0.04,0.0431,0.0462,0.0466,0.0494,0.0494,0.0495,0.0532,0.0532,0.0533,0.0534,0.0532,0.0531,0.053,0.051,0,0,0.0528,0.0527,0,0,0,0,0,0,0,0,0.0428,0.0431,0.0457,0.046,0.0464,0.0509,0.0483,0.0498,0.0531,0.0503,0.0533,0.0534,0.052,0.052,0.0525,0.051,0.0509,0.0527,0.0527,0.0527,0.0526,0,0,0,0,0,0,0,0.0426,0.0429,0.0452,0.0458,0.0463,0.0493,0.0497,0.0486,0.0502,0.0505,0.0509,0.0522,0.0521,0.0526,0.0526,0.0509,0.0527,0.0527,0.0526,0.0526,0.0492,0.0492,0,0,0,0,0,0,0.0422,0.0426,0.0451,0.0455,0.0452,0.0493,0.0497,0.0491,0.0504,0.0508,0.0521,0.0523,0.0527,0.0526,0.0526,0.052,0.0527,0.0526,0.0525,0.0492,0.0492,0.0491,0,0,0,0,0,0,0.0421,0.0423,0.0448,0.0446,0.0452,0.0492,0.0485,0.0492,0.0524,0.0517,0.0519,0.055,0.0528,0.0527,0.0562,0.052,0.0525,0.0525,0.0493,0.0492,0.0492,0.0497,0,0,0,0,0,0,0.0419,0.0421,0.0431,0.0445,0.0452,0.0479,0.0485,0.0493,0.0531,0.0535,0.0542,0.0541,0.0528,0.0564,0.0561,0.0519,0.0524,0.0493,0.0493,0.0492,0.0497,0.0497,0.0496,0,0,0,0,0,0.0417,0.0425,0.0431,0.0435,0.0458,0.048,0.0486,0.0515,0.0532,0.0547,0.0573,0.0542,0.0554,0.0565,0.0562,0.0517,0.0494,0.0493,0.0492,0.0498,0.0497,0.0496,0,0,0,0,0,0,0.0425,0.0431,0.0437,0.0448,0.047,0.0488,0.0514,0.053,0.0562,0.0575,0.0568,0.0569,0.057,0.0557,0.0568,0.0504,0.0505,0.0504,0.051,0.051,0.0509,0.0499,0.0523,0,0,0,0,0,0.0427,0.0429,0.0446,0.0457,0.0471,0.0496,0.0516,0.0534,0.0559,0.0575,0.0586,0.0581,0.0556,0.0553,0.0541,0.0528,0.0502,0.0487,0.0486,0.0486,0.0475,0.041,0.0402,0.0488,0.0488,0.0488,0,0,0.0435,0.0439,0.0442,0.0459,0.048,0.05,0.051,0.0546,0.0558,0.0567,0.0603,0.0591,0.0557,0.0539,0.0533,0.0528,0.0455,0.0485,0.0485,0.0474,0.0408,0.0399,0.0392,0.0488,0.0488,0.0488,0,0,0.0449,0.0454,0.0465,0.0479,0.0513,0.0524,0.0539,0.0574,0.0587,0.0619,0.0608,0.0592,0.0587,0.054,0.0512,0.0502,0.0459,0.0482,0.0464,0.0401,0.0392,0.0385,0.0372,0.0363,0.0475,0.0475,0.0475,0,0.0463,0.0469,0.0476,0.0492,0.051,0.0536,0.056,0.0569,0.0612,0.0611,0.0635,0.0591,0.0572,0.05,0.0493,0.0494,0.0475,0.0471,0.0398,0.039,0.0382,0.0371,0.0361,0.0475,0.0475,0.0475,0.0475,0,0.0481,0.0494,0.0505,0.0522,0.0543,0.0568,0.0582,0.0605,0.0627,0.0623,0.0595,0.0577,0.0539,0.0511,0.0502,0.0415,0.0428,0.0411,0.04,0.0374,0.0364,0.0354,0.0475,0.0475,0.0475,0.0475,0,0,0.0484,0.0513,0.0518,0.0533,0.0562,0.058,0.0593,0.0599,0.0595,0.0606,0.058,0.0525,0.0507,0.0474,0.0438,0.0379,0.0319,0.0373,0.037,0.0361,0.0214,0.0209,0.0198,0.0288,0.0286,0.0284,0.0241,0,0.0501,0.0533,0.0541,0.0575,0.0595,0.0609,0.0616,0.0618,0.0612,0.0595,0.0535,0.0507,0.049,0.047,0.0401,0.0332,0.0287,0.0335,0.024,0.0238,0.0235,0.0183,0.0276,0.0233,0.0231,0.0229,0.0228,0,0.0512,0.053,0.0577,0.0594,0.0606,0.064,0.0647,0.065,0.0607,0.0594,0.0537,0.05,0.0408,0.0409,0.0271,0.0303,0.0262,0.0217,0.0214,0.0193,0.0211,0.0256,0.0209,0.021,0.0212,0.0213,0.0214,0,0.0506,0.0547,0.059,0.0601,0.0634,0.0664,0.0684,0.0665,0.0657,0.0598,0.0578,0.0468,0.0423,0.0329,0.0238,0.0252,0.0097,0.0106,0.007,0.0072,0.0091,0.0099,0.0018,0.0018,0.0018,0.0018,0.0018,0,0.0504,0.0524,0.0608,0.0625,0.0676,0.0694,0.0721,0.071,0.0684,0.064,0.0586,0.0498,0.0398,0.0298,0.0223,0.0105,0.0084,0.0052,0.004,0.0101,0.011,0.0086,0.0094,0.0016,0.0017,0.0017,0.0017,0,0.0473,0.0526,0.0567,0.064,0.0679,0.0717,0.0772,0.0763,0.0747,0.0685,0.067,0.0528,0.0377,0.0294,0.0134,0.0094,-0.0016,-0.004,0.0055,0.0053,0.0018,0.0027,-0.0086,-0.0087,-0.0088,-0.0089,-0.0089,0,0.0454,0.0487,0.059,0.064,0.069,0.0758,0.0793,0.0801,0.0776,0.0661,0.061,0.0478,0.0372,0.0141,0.0052,-0.0057,-0.0065,-0.0076,-0.0055,-0.0003,-0.0003,0.0008,0.0018,-0.0091,-0.0091,-0.0091,-0.0091,0,0.0411,0.0469,0.0507,0.0624,0.07,0.074,0.0787,0.0751,0.071,0.073,0.0523,0.04,0.0235,0.0077,0.0023,-0.0071,-0.0056,-0.0085,-0.0083,-0.0063,-0.001,-0.0006,0.0005,-0.0094,-0.0094,-0.0093,-0.0093,0,0.0382,0.0406,0.0494,0.0589,0.0673,0.0675,0.0692,0.0652,0.0626,0.0528,0.0437,0.027,0.0202,0.0065,-0.003,-0.0078,-0.0084,-0.0073,-0.0072,-0.0069,-0.0049,0.0022,-0.0084,0,0,0,0,0,0.0359,0.039,0.0457,0.0533,0.0608,0.0664,0.0668,0.0664,0.0628,0.0492,0.0473,0.0309,0.0135,0.0027,-0.0028,-0.0038,-0.0082,-0.0099,-0.0066,-0.0111,-0.0107,-0.0089,0,0,0,0,0,0,0.0344,0.0396,0.0429,0.0478,0.0528,0.0579,0.0566,0.0534,0.0452,0.0419,0.0308,0.034,0.0159,0.0184,-0.0015,-0.0031,-0.0011,-0.0147,-0.0148,-0.0112,-0.0109,-0.0107,-0.0086,0,0,0,0,0]}]]